This demonstration page uses our WeatherBlox Daily Observations layout. Learn more.

Left ArrowRight Arrow

39.92423, -83.80882

Hourly Observations for January 20, 2018

Temp ( °F °C ) Dew Point ( °F °C ) Humidity (%) Winds ( mph kmh ) Pressure ( in mb ) Visibility ( mi km ) Precip ( " mm )
12:56 am 00:56 Clear 34 1.1 22 -5.6 61 61 SW 15 24 29.99 1016 10 16 N/A
1:56 am 01:56 Clear 34 1.1 22 -5.6 61 61 SW 16 26 29.98 1015 10 16 N/A
2:56 am 02:56 Clear 33 0.6 22 -5.6 64 64 SW 16 26 30.00 1016 10 16 N/A
3:56 am 03:56 Clear 33 0.6 23 -5 66 66 SW 14 22 30.02 1017 10 16 N/A
4:56 am 04:56 Clear 34 1.1 23 -5 64 64 SW 15 24 30.01 1016 10 16 N/A
5:56 am 05:56 Clear 33 0.6 23 -5 66 66 SW 12 19 30.03 1017 10 16 N/A
6:56 am 06:56 Clear 33 0.6 23 -5 66 66 SW 10 17 30.05 1018 10 16 N/A
7:56 am 07:56 Sunny 33 0.6 23 -5 66 66 SW 15 24 30.05 1018 10 16 N/A
8:56 am 08:56 Sunny 34 1.1 23 -5 64 64 SW 15 24 30.07 1018 10 16 N/A
9:56 am 09:56 Sunny 36 2.2 23 -5 59 59 SW 13 20 30.09 1019 10 16 N/A
10:56 am 10:56 Sunny 38 3.3 25 -3.9 60 60 SW 16 26 30.09 1019 10 16 N/A
11:56 am 11:56 Sunny 40 4.4 27 -2.8 60 60 WSW 15 24 30.09 1019 10 16 N/A
12:56 pm 12:56 Sunny 41 5 28 -2.2 60 60 SW 14 22 30.07 1018 10 16 N/A
1:56 pm 13:56 Sunny 43 6.1 29 -1.7 58 58 WSW 13 20 30.07 1018 10 16 N/A
2:56 pm 14:56 Sunny 44 6.7 30 -1.1 58 58 SW 9 15 30.07 1018 10 16 N/A
3:56 pm 15:56 Sunny 44 6.7 31 -0.6 60 60 SSW 10 17 30.06 1018 10 16 N/A
4:44 pm 16:44 Mostly Cloudy 43 6 32 undefined 66 66 SW 9 15 30.09 1019 10 16 N/A
4:56 pm 16:56 Cloudy 43 6.1 32 undefined 65 65 SW 9 15 30.09 1019 10 16 N/A
5:56 pm 17:56 Cloudy 43 6.1 33 0.6 68 68 SSW 7 11 30.10 1019 10 16 N/A
6:56 pm 18:56 Cloudy 41 5 32 undefined 70 70 SSW 7 11 30.12 1020 10 16 N/A
7:56 pm 19:56 Cloudy 41 5 31 -0.6 67 67 SSW 3 6 30.12 1020 10 16 N/A
8:56 pm 20:56 Cloudy 40 4.4 31 -0.6 70 70 S 3 6 30.13 1020 10 16 N/A
9:56 pm 21:56 Cloudy 41 5 33 0.6 73 73 SW 10 17 30.12 1020 10 16 N/A
10:05 pm 22:05 Cloudy 41 5 36 2 81 81 SW 8 13 30.12 1020 8 13 N/A
10:45 pm 22:45 Cloudy 39 4 36 2 87 87 WSW 6 9 30.15 1021 10 16 N/A
10:56 pm 22:56 Cloudy 39 3.9 37 2.8 93 93 WSW 3 6 30.13 1020 10 16 N/A
11:49 pm 23:49 Cloudy with Light Rain 39 4 37 3 93 93 N N/A 30.12 1020 2 3 N/A
11:56 pm 23:56 Cloudy with Light Rain 38 3.3 37 2.8 97 97 N N/A 30.13 1020 2 3 N/A

Powered by AerisWeather